DW7955 Weather Reports


time (UTC)temp
C
wind
direction
speed
KPH
gust
KPH
rain 1hr
cm
rain 24hr
cm
rain mn
cm
humidity
%
barometer
mb
20260509210041 26 242 3.2 14.5 0.00 0.00 0.00 14 1002.5
20260509204547 27 291 6.4 14.5 0.00 0.00 0.00 12 1002.8
20260509203038 27 252 1.6 12.9 0.00 0.00 0.00 14 1003.0
20260509201532 26 148 8.0 20.9 0.00 0.00 0.00 14 1003.6
20260509200037 26 351 6.4 17.7 0.00 0.00 0.00 13 1003.9
20260509194537 26 241 6.4 16.1 0.00 0.00 0.00 14 1004.2
20260509193035 26 217 11.3 27.4 0.00 0.00 0.00 14 1004.5
20260509191524 25 246 6.4 17.7 0.00 0.00 0.00 15 1004.7
20260509190023 26 219 14.5 25.7 0.00 0.00 0.00 15 1005.0
20260509184520 26 261 4.8 17.7 0.00 0.00 0.00 16 1005.1
20260509183016 25 314 11.3 24.1 0.00 0.00 0.00 16 1005.3
20260509181513 25 298 9.7 24.1 0.00 0.00 0.00 16 1005.6
20260509180010 24 253 8.0 30.6 0.00 0.00 0.00 17 1005.6
20260509174509 24 253 4.8 27.4 0.00 0.00 0.00 16 1005.9
20260509173005 23 329 3.2 22.5 0.00 0.00 0.00 19 1006.1
20260509171506 23 271 4.8 20.9 0.00 0.00 0.00 18 1006.2
20260509170003 23 262 11.3 27.4 0.00 0.00 0.00 18 1006.4
20260509164600 23 286 4.8 17.7 0.00 0.00 0.00 19 1006.5
20260509163105 22 271 12.9 25.7 0.00 0.00 0.00 20 1006.5
20260509161552 22 299 4.8 16.1 0.00 0.00 0.00 26 1006.6
20260509160049 21 328 9.7 20.9 0.00 0.00 0.00 27 1006.8
20260509154557 20 237 4.8 19.3 0.00 0.00 0.00 33 1006.8
20260509153040 18 298 6.4 16.1 0.00 0.00 0.00 35 1006.8
20260509151537 17 247 4.8 14.5 0.00 0.00 0.00 38 1007.0
20260509150032 16 240 3.2 6.4 0.00 0.00 0.00 49 1007.3
20260509144530 15 240 3.2 6.4 0.00 0.00 0.00 51 1007.3
20260509143031 15 221 1.6 6.4 0.00 0.00 0.00 52 1007.2
20260509141523 13 276 4.8 9.7 0.00 0.00 0.00 54 1007.7
20260509140019 12 227 3.2 8.0 0.00 0.00 0.00 57 1007.6
20260509134516 12 244 4.8 8.0 0.00 0.00 0.00 58 1007.6
20260509133014 11 351 1.6 8.0 0.00 0.00 0.00 60 1007.8
20260509131526 10 351 1.6 6.4 0.00 0.00 0.00 65 1007.7
20260509130021 9 291 0.0 6.4 0.00 0.00 0.00 67 1007.7
20260509124508 8 253 0.0 3.2 0.00 0.00 0.00 72 1007.6
20260509123009 7 286 0.0 4.8 0.00 0.00 0.00 74 1007.4
20260509121511 7 205 0.0 3.2 0.00 0.00 0.00 75 1007.3
20260509120007 7 205 3.2 6.4 0.00 0.00 0.00 76 1007.1
20260509114504 7 274 0.0 0.0 0.00 0.00 0.00 75 1006.9
20260509113002 7 274 0.0 0.0 0.00 0.00 0.00 77 1006.9
20260509111502 7 235 0.0 0.0 0.00 0.00 0.00 76 1006.9
20260509110100 7 235 0.0 0.0 0.00 0.00 0.00 76 1006.9
20260509104557 7 235 0.0 0.0 0.00 0.00 0.00 74 1007.0
20260509103103 7 235 0.0 1.6 0.00 0.00 0.00 73 1007.1
20260509101555 8 235 1.6 6.4 0.00 0.00 0.00 74 1007.0
20260509100054 7 235 0.0 0.0 0.00 0.00 0.00 74 1007.0
20260509094555 8 235 0.0 0.0 0.00 0.00 0.00 73 1007.2
20260509093051 8 235 0.0 1.6 0.00 0.00 0.00 73 1007.0
20260509091548 8 235 0.0 0.0 0.00 0.00 0.00 72 1006.9
20260509084544 9 235 0.0 0.0 0.00 0.00 0.00 70 1007.1
20260509083049 9 235 0.0 0.0 0.00 0.00 0.00 67 1007.1
20260509081536 10 235 0.0 4.8 0.00 0.00 0.00 64 1007.2
20260509080032 11 125 0.0 6.4 0.00 0.00 0.00 58 1007.1
20260509074529 11 125 0.0 0.0 0.00 0.00 0.00 58 1007.5
20260509073027 11 125 0.0 0.0 0.00 0.00 0.00 58 1007.8
20260509071526 11 125 0.0 0.0 0.00 0.00 0.00 58 1007.7
20260509070023 12 125 0.0 3.2 0.00 0.00 0.00 57 1007.9
20260509064521 12 125 0.0 4.8 0.00 0.00 0.00 58 1008.1
20260509063020 12 125 1.6 4.8 0.00 0.00 0.00 58 1008.2
20260509061521 12 125 3.2 4.8 0.00 0.00 0.00 57 1008.2
20260509060016 12 125 0.0 0.0 0.00 0.00 0.00 56 1008.2
20260509054515 13 125 0.0 1.6 0.00 0.00 0.00 54 1008.3
20260509053015 12 125 0.0 0.0 0.00 0.00 0.00 54 1008.3
20260509051514 13 125 0.0 0.0 0.00 0.00 0.00 53 1008.5
20260509050014 13 125 0.0 0.0 0.00 0.00 0.00 51 1008.5
20260509044513 15 125 0.0 0.0 0.00 0.00 0.00 47 1008.5
20260509043013 16 117 0.0 0.0 0.00 0.00 0.00 43 1008.4
20260509041515 16 113 3.2 4.8 0.00 0.00 0.00 41 1008.4
20260509040012 17 93 3.2 12.9 0.00 0.00 0.00 40 1008.1
20260509034510 17 109 4.8 14.5 0.00 0.00 0.00 39 1007.8
20260509033010 17 97 8.0 14.5 0.00 0.00 0.00 38 1007.7
20260509031510 17 53 9.7 16.1 0.00 0.00 0.00 38 1007.6
20260509030010 18 67 9.7 16.1 0.00 0.00 0.00 37 1007.2
20260509024512 18 57 9.7 16.1 0.00 0.00 0.00 37 1007.1
20260509023008 18 53 9.7 16.1 0.00 0.00 0.00 36 1007.0
20260509021508 18 48 9.7 17.7 0.00 0.00 0.00 35 1006.6
20260509020008 19 61 14.5 24.1 0.00 0.00 0.00 34 1006.3
20260509014511 20 51 14.5 19.3 0.00 0.00 0.00 33 1006.2
20260509013007 20 45 9.7 20.9 0.00 0.00 0.00 30 1005.8
20260509011507 21 94 9.7 19.3 0.00 0.00 0.00 29 1005.4
20260509010015 21 79 11.3 16.1 0.00 0.00 0.00 29 1005.6
20260509004510 21 70 16.1 24.1 0.00 0.00 0.00 29 1005.7
20260509003005 21 82 9.7 14.5 0.00 0.00 0.00 29 1005.4
20260509001505 21 77 9.7 17.7 0.00 0.00 0.00 30 1005.5
20260509000007 21 67 16.1 22.5 0.00 0.00 0.00 28 1005.5
20260508234510 21 88 14.5 22.5 0.00 0.00 0.00 28 1005.4
20260508233003 22 86 14.5 25.7 0.00 0.00 0.00 28 1005.2
20260508231503 22 61 17.7 29.0 0.00 0.00 0.00 28 1005.2
20260508230002 22 144 11.3 22.5 0.00 0.00 0.00 28 1005.2
20260508224559 22 82 6.4 24.1 0.00 0.00 0.00 30 1005.4
20260508223058 22 61 6.4 22.5 0.00 0.00 0.00 29 1005.6
20260508221556 21 110 11.3 24.1 0.00 0.00 0.00 30 1005.7
20260508220057 21 116 12.9 27.4 0.00 0.00 0.00 30 1005.7
20260508214554 21 97 12.9 20.9 0.00 0.00 0.00 32 1005.9
20260508213052 21 70 4.8 19.3 0.00 0.00 0.00 32 1005.9
20260508211548 21 51 11.3 17.7 0.00 0.00 0.00 32 1006.1